Fairbanks, AK

8:04 PM AKDT on April 29, 2017 (GMT -0800)
Fairbanks International

Weather History for PAFA - October, 2011

Change the Weather History Date:

Thursday, October 27, 2011

  Actual Average Record
Temperature  
Mean Temperature 19 °F 15 °F  
Max Temperature 28 °F 22 °F 49 °F (1940)
Min Temperature 10 °F 7 °F -27 °F (1996)
Degree Days  
Heating Degree Days 46 50  
Month to date heating degree days 897 1055  
Since 1 July heating degree days 1712 2049  
Cooling Degree Days 0 0  
Month to date cooling degree days 0 0  
Year to date cooling degree days 39 61  
Moisture  
Dew Point 15 °F    
Average Humidity 86    
Maximum Humidity 92    
Minimum Humidity 75    
Precipitation  
Precipitation 0.00 in 0.02 in 0.17 in (1929)
Month to date precipitation 0.27 0.74  
Year to date precipitation 8.08 9.41  
Snow  
Snow 0.00 in 0.40 in 2.60 in (1951)
Month to date snowfall 2.8 9.1  
Since 1 July snowfall 2.8 10.9  
Since 1 September snowfall 2.8 10.9  
Snow Depth 2.00 in    
Sea Level Pressure  
Sea Level Pressure 29.61 in    
Wind  
Wind Speed 3 mph (NE)    
Max Wind Speed 7 mph    
Max Gust Speed -    
Visibility 10 miles    
Events      
T = Trace of Precipitation, MM = Missing Value Source: NWS Daily Summary

Daily Weather History Graph

Daily Weather History Graph

Search for Another Location

Airport or City:

Trip Planner

Search our weather history database for the weather conditions in past years. The results will help you decide how hot, cold, wet, or windy it might be!

Date:

Astronomy

Oct. 27, 2011 Rise Set
Actual Time 9:22 AM AKDT 5:47 PM AKDT
Civil Twilight 8:28 AM AKDT 6:40 PM AKDT
Nautical Twilight 7:31 AM AKDT 7:37 PM AKDT
Astronomical Twilight 6:34 AM AKDT 8:34 PM AKDT
Moon 11:42 AM AKDT (10/27) 5:14 PM AKDT (10/27)
Length of Visible Light 10h 11m
Length of Day
8h 25m
New Moon, 2% of the Moon is Illuminated
Oct 27
New Moon
Nov 2
First Quarter
Nov 10
Full
Nov 18
Last Quarter
Nov 24
New

Hourly Weather History & Observations

Time (AKDT) Temp. Windchill Dew Point Humidity Pressure Visibility Wind Dir Wind Speed Gust Speed Precip Events Conditions
12:53 AM 18.0 °F - 16.0 °F 92% 29.62 in 10.0 mi Calm Calm - N/A   Mostly Cloudy
1:53 AM 18.0 °F 11.1 °F 16.0 °F 92% 29.64 in 10.0 mi ESE 4.6 mph - N/A   Mostly Cloudy
2:53 AM 19.0 °F - 17.1 °F 92% 29.65 in 10.0 mi Calm Calm - N/A   Mostly Cloudy
3:53 AM 21.9 °F - 19.0 °F 89% 29.66 in 10.0 mi Calm Calm - N/A   Mostly Cloudy
4:53 AM 21.9 °F 17.2 °F 19.0 °F 89% 29.65 in 10.0 mi North 3.5 mph - N/A   Mostly Cloudy
5:53 AM 17.1 °F - 14.0 °F 88% 29.65 in 10.0 mi Calm Calm - N/A   Mostly Cloudy
6:53 AM 14.0 °F 8.2 °F 10.0 °F 84% 29.65 in 10.0 mi NE 3.5 mph - N/A   Mostly Cloudy
7:53 AM 12.9 °F 6.9 °F 10.9 °F 92% 29.65 in 10.0 mi NNE 3.5 mph - N/A   Scattered Clouds
8:53 AM 15.1 °F - 12.9 °F 91% 29.65 in 10.0 mi Calm Calm - N/A   Scattered Clouds
9:53 AM 17.1 °F - 14.0 °F 88% 29.64 in 10.0 mi Calm Calm - N/A   Scattered Clouds
10:53 AM 17.1 °F 8.7 °F 14.0 °F 88% 29.65 in 10.0 mi ENE 5.8 mph - N/A   Scattered Clouds
11:53 AM 19.9 °F 12.1 °F 16.0 °F 85% 29.64 in 10.0 mi ENE 5.8 mph - N/A   Scattered Clouds
12:53 PM 21.9 °F 17.2 °F 18.0 °F 85% 29.65 in 10.0 mi NE 3.5 mph - N/A   Scattered Clouds
1:53 PM 25.0 °F 17.1 °F 19.0 °F 78% 29.62 in 10.0 mi NNE 6.9 mph - N/A   Scattered Clouds
2:53 PM 26.1 °F 21.9 °F 19.0 °F 75% 29.62 in 10.0 mi NE 3.5 mph - N/A   Scattered Clouds
3:53 PM 26.1 °F 20.5 °F 19.0 °F 75% 29.60 in 10.0 mi ENE 4.6 mph - N/A   Mostly Cloudy
4:53 PM 25.0 °F 20.7 °F 19.0 °F 78% 29.58 in 10.0 mi ENE 3.5 mph - N/A   Mostly Cloudy
5:53 PM 21.0 °F 12.4 °F 17.1 °F 85% 29.57 in 10.0 mi NE 6.9 mph - N/A   Mostly Cloudy
6:53 PM 17.1 °F - 14.0 °F 88% 29.57 in 10.0 mi Calm Calm - N/A   Mostly Cloudy
7:53 PM 18.0 °F 11.1 °F 14.0 °F 84% 29.55 in 10.0 mi NE 4.6 mph - N/A   Scattered Clouds
8:53 PM 14.0 °F 8.2 °F 10.9 °F 88% 29.55 in 10.0 mi East 3.5 mph - N/A   Scattered Clouds
9:53 PM 16.0 °F 8.8 °F 10.9 °F 81% 29.52 in 10.0 mi ENE 4.6 mph - N/A   Scattered Clouds
10:53 PM 12.9 °F 3.8 °F 9.0 °F 84% 29.51 in 10.0 mi NE 5.8 mph - N/A   Scattered Clouds
11:53 PM 12.0 °F 2.7 °F 9.0 °F 88% 29.49 in 10.0 mi NE 5.8 mph - N/A   Scattered Clouds